This is the latest recevied weather packets stored in our database for station/object KB0RPJ. If no packets are shown the sender has not sent any weather packets the latest 10 day(s).
| Time | Temp. | Humidity | Pressure | Rain* | Wind** | Luminosity | Snow |
|---|---|---|---|---|---|---|---|
| 1777643405 | 7.78° C | 69% | 1018.2 hPa | 0 mm | - | 80 W/m² | - |
| 1777643118 | 7.78° C | 71% | 1018.4 hPa | 0 mm | - | 79 W/m² | - |
| 1777642805 | 7.22° C | 72% | 1018.5 hPa | 0 mm | - | 94 W/m² | - |
| 1777642509 | 7.22° C | 72% | 1018.6 hPa | 0 mm | - | 111 W/m² | - |
| 1777642205 | 7.22° C | 73% | 1018.6 hPa | 0 mm | - | 117 W/m² | - |
| 1777641911 | 7.22° C | 74% | 1018.6 hPa | 0 mm | - | 99 W/m² | - |
| 1777641606 | 6.67° C | 75% | 1018.6 hPa | 0 mm | - | 125 W/m² | - |
| 1777641314 | 6.11° C | 74% | 1018.6 hPa | 0 mm | - | 193 W/m² | - |
| 1777641006 | 6.11° C | 75% | 1018.6 hPa | 0 mm | - | 231 W/m² | - |
| 1777640705 | 6.11° C | 74% | 1018.6 hPa | 0 mm | - | 95 W/m² | - |
| 1777640405 | 5.56° C | 74% | 1018.6 hPa | 0 mm | - | 76 W/m² | - |
| 1777640107 | 5.56° C | 75% | 1018.6 hPa | 0 mm | - | 67 W/m² | - |
| 1777639808 | 5.56° C | 76% | 1018.6 hPa | 0 mm | - | 58 W/m² | - |
| 1777639505 | 5.56° C | 79% | 1018.6 hPa | 0 mm | - | 52 W/m² | - |
| 1777639205 | 5° C | 80% | 1018.6 hPa | 0 mm | - | 76 W/m² | - |
| 1777638904 | 5° C | 80% | 1018.5 hPa | 0 mm | - | 51 W/m² | - |
| 1777638605 | 4.44° C | 80% | 1018.5 hPa | 0 mm | - | 50 W/m² | - |
| 1777638304 | 4.44° C | 80% | 1018.6 hPa | 0 mm | - | 46 W/m² | - |
| 1777638005 | 4.44° C | 80% | 1018.4 hPa | 0 mm | - | 43 W/m² | - |
| 1777637705 | 3.89° C | 80% | 1018.5 hPa | 0 mm | - | 41 W/m² | - |
| 1777637405 | 3.89° C | 79% | 1018.4 hPa | 0 mm | - | 38 W/m² | - |
| 1777637104 | 3.89° C | 79% | 1018.3 hPa | 0 mm | - | 36 W/m² | - |
| 1777636805 | 3.89° C | 78% | 1018.3 hPa | 0 mm | - | 33 W/m² | - |
| 1777636505 | 3.89° C | 78% | 1018.3 hPa | 0 mm | - | 29 W/m² | - |
| 1777636205 | 3.89° C | 77% | 1018.3 hPa | 0 mm | - | 26 W/m² | - |
* Rain latest hour (hover to see other rain measurements)
** Current wind speed in m/s (hover to see current wind gust speed)